Orbital Elements at Epoch 2459200.5 (2020-Dec-17.0) TDB
Reference: JPL 19 (heliocentric ecliptic J2000)
Element | Value | Uncertainty (1-sigma) | Units |
e | .1487948466394818 | 4.7079e-08 | |
a | 2.627330239588891 | 1.4179e-08 | au |
q | 2.236397039517989 | 1.2544e-07 | au |
i | 8.216551939803356 | 4.6989e-06 | deg |
node | 147.6412612612772 | 3.4019e-05 | deg |
peri | 36.65112127863808 | 3.6963e-05 | deg |
M | 335.1870558705192 | 1.4273e-05 | deg |
tp | 2459307.712696827122 (2021-Apr-03.21269683) | 6.1778e-05 | TDB |
period | 1555.501461509617 4.26 | 1.2592e-05 3.448e-08 | d yr |
n | .2314366195777272 | 1.8736e-09 | deg/d |
Q | 3.018263439659793 | 1.6289e-08 | au |
|
| | Orbit Determination Parameters
Additional Information
|